| time (UTC) | temp C | wind direction | speed KPH | gust KPH | rain 1hr cm | rain 24hr cm | rain mn cm | humidity % | barometer mb |
| 20260905231137 | 13 | 0.0 | 0.0 | 0.00 | 0.00 | 0.00 | 80 | 978.5 | |
| 20260905231034 | 13 | 0.0 | 0.0 | 0.00 | 0.00 | 0.00 | 81 | 978.5 | |
| 20260905220833 | 14 | 0.0 | 0.0 | 0.00 | 0.00 | 0.00 | 72 | 978.3 | |
| 20260905210532 | 15 | 0.0 | 0.0 | 0.00 | 0.00 | 0.00 | 68 | 978.0 | |
| 20260905210429 | 14 | 0.0 | 0.0 | 0.00 | 0.00 | 0.00 | 69 | 978.0 | |
| 20260905200126 | 15 | 0.0 | 0.0 | 0.00 | 0.00 | 0.00 | 63 | 977.3 | |
| 20260905195922 | 15 | 0.0 | 0.0 | 0.00 | 0.00 | 0.00 | 62 | 977.3 | |
| 20260905195820 | 15 | 0.0 | 0.0 | 0.00 | 0.00 | 0.00 | 63 | 977.2 | |
| 20260905194321 | 15 | 0.0 | 0.0 | 0.00 | 0.00 | 0.00 | 62 | 977.1 | |
| 20260905194219 | 15 | 0.0 | 0.0 | 0.00 | 0.00 | 0.00 | 63 | 977.1 | |
| 20260905192718 | 15 | 0.0 | 0.0 | 0.00 | 0.00 | 0.00 | 62 | 976.8 | |
| 20260905192616 | 15 | 0.0 | 0.0 | 0.00 | 0.00 | 0.00 | 63 | 976.9 | |
| 20260905191116 | 16 | 0.0 | 0.0 | 0.00 | 0.00 | 0.00 | 60 | 976.9 | |
| 20260905191014 | 15 | 0.0 | 0.0 | 0.00 | 0.00 | 0.00 | 61 | 976.8 | |
| 20260905185516 | 16 | 0.0 | 0.0 | 0.00 | 0.00 | 0.00 | 59 | 976.6 | |
| 20260905185413 | 16 | 0.0 | 0.0 | 0.00 | 0.00 | 0.00 | 59 | 976.6 | |
| 20260905183912 | 16 | 0.0 | 0.0 | 0.00 | 0.00 | 0.00 | 59 | 976.4 | |
| 20260905183810 | 16 | 0.0 | 0.0 | 0.00 | 0.00 | 0.00 | 59 | 976.4 | |
| 20260905182308 | 17 | 0.0 | 0.0 | 0.00 | 0.00 | 0.00 | 58 | 976.3 | |
| 20260905182205 | 16 | 0.0 | 0.0 | 0.00 | 0.00 | 0.00 | 59 | 976.3 | |
| 20260905180708 | 17 | 0.0 | 0.0 | 0.00 | 0.00 | 0.00 | 56 | 976.0 | |
| 20260905180605 | 17 | 0.0 | 0.0 | 0.00 | 0.00 | 0.00 | 57 | 976.0 | |
| 20260905175104 | 17 | 0.0 | 0.0 | 0.00 | 0.00 | 0.00 | 53 | 975.8 | |
| 20260905175002 | 17 | 0.0 | 0.0 | 0.00 | 0.00 | 0.00 | 53 | 975.7 | |
| 20260905173503 | 18 | 0.0 | 0.0 | 0.00 | 0.00 | 0.00 | 51 | 975.5 | |
| 20260905173400 | 18 | 0.0 | 0.0 | 0.00 | 0.00 | 0.00 | 51 | 975.5 | |
| 20260905171901 | 18 | 0.0 | 0.0 | 0.00 | 0.00 | 0.00 | 49 | 975.3 | |
| 20260905171758 | 18 | 0.0 | 0.0 | 0.00 | 0.00 | 0.00 | 50 | 975.2 | |
| 20260905170259 | 19 | 0.0 | 0.0 | 0.00 | 0.00 | 0.00 | 47 | 975.0 | |
| 20260905170156 | 18 | 0.0 | 0.0 | 0.00 | 0.00 | 0.00 | 48 | 975.0 | |
| 20260905164658 | 20 | 0.0 | 0.0 | 0.00 | 0.00 | 0.00 | 46 | 974.7 | |
| 20260905164555 | 19 | 0.0 | 0.0 | 0.00 | 0.00 | 0.00 | 47 | 974.7 | |
| 20260905163053 | 20 | 0.0 | 0.0 | 0.00 | 0.00 | 0.00 | 45 | 974.5 | |
| 20260905161457 | 20 | 0.0 | 0.0 | 0.00 | 0.00 | 0.00 | 46 | 974.2 | |
| 20260905161350 | 20 | 0.0 | 0.0 | 0.00 | 0.00 | 0.00 | 46 | 974.2 | |
| 20260905155850 | 20 | 0.0 | 0.0 | 0.00 | 0.00 | 0.00 | 42 | 974.2 | |
| 20260905155747 | 20 | 0.0 | 0.0 | 0.00 | 0.00 | 0.00 | 43 | 974.1 | |
| 20260905154249 | 21 | 0.0 | 0.0 | 0.00 | 0.00 | 0.00 | 43 | 973.9 | |
| 20260905154146 | 20 | 0.0 | 0.0 | 0.00 | 0.00 | 0.00 | 43 | 974.0 | |
| 20260905152645 | 21 | 0.0 | 0.0 | 0.00 | 0.00 | 0.00 | 43 | 973.9 | |
| 20260905151044 | 21 | 0.0 | 0.0 | 0.00 | 0.00 | 0.00 | 43 | 973.8 | |
| 20260905150941 | 21 | 0.0 | 0.0 | 0.00 | 0.00 | 0.00 | 43 | 973.9 | |
| 20260905145441 | 21 | 0.0 | 0.0 | 0.00 | 0.00 | 0.00 | 42 | 973.9 | |
| 20260905145339 | 21 | 0.0 | 0.0 | 0.00 | 0.00 | 0.00 | 42 | 973.8 | |
| 20260905143845 | 21 | 0.0 | 0.0 | 0.00 | 0.00 | 0.00 | 43 | 973.7 | |
| 20260905143737 | 21 | 0.0 | 0.0 | 0.00 | 0.00 | 0.00 | 43 | 973.6 | |
| 20260905142240 | 21 | 0.0 | 0.0 | 0.00 | 0.00 | 0.00 | 44 | 973.9 | |
| 20260905142136 | 21 | 0.0 | 0.0 | 0.00 | 0.00 | 0.00 | 45 | 973.9 | |
| 20260905140636 | 21 | 0.0 | 0.0 | 0.00 | 0.00 | 0.00 | 44 | 973.9 | |
| 20260905140533 | 21 | 0.0 | 0.0 | 0.00 | 0.00 | 0.00 | 44 | 973.8 | |
| 20260905135034 | 21 | 0.0 | 0.0 | 0.00 | 0.00 | 0.00 | 43 | 973.8 | |
| 20260905134931 | 21 | 0.0 | 0.0 | 0.00 | 0.00 | 0.00 | 43 | 973.9 | |
| 20260905133432 | 22 | 0.0 | 0.0 | 0.00 | 0.00 | 0.00 | 42 | 973.8 | |
| 20260905133329 | 22 | 0.0 | 0.0 | 0.00 | 0.00 | 0.00 | 42 | 973.8 | |
| 20260905131830 | 21 | 0.0 | 0.0 | 0.00 | 0.00 | 0.00 | 44 | 973.9 | |
| 20260905131727 | 21 | 0.0 | 0.0 | 0.00 | 0.00 | 0.00 | 45 | 973.9 | |
| 20260905130227 | 20 | 0.0 | 0.0 | 0.00 | 0.00 | 0.00 | 50 | 974.0 | |
| 20260905130125 | 20 | 0.0 | 0.0 | 0.00 | 0.00 | 0.00 | 50 | 974.1 | |
| 20260905124625 | 21 | 0.0 | 0.0 | 0.00 | 0.00 | 0.00 | 47 | 974.0 | |
| 20260905124522 | 21 | 0.0 | 0.0 | 0.00 | 0.00 | 0.00 | 46 | 974.0 | |
| 20260905123023 | 21 | 0.0 | 0.0 | 0.00 | 0.00 | 0.00 | 46 | 974.1 | |
| 20260905122921 | 21 | 0.0 | 0.0 | 0.00 | 0.00 | 0.00 | 46 | 974.2 | |
| 20260905121523 | 21 | 0.0 | 0.0 | 0.00 | 0.00 | 0.00 | 44 | 974.2 | |
| 20260905121319 | 21 | 0.0 | 0.0 | 0.00 | 0.00 | 0.00 | 45 | 974.1 | |
| 20260905115821 | 21 | 0.0 | 0.0 | 0.00 | 0.00 | 0.00 | 44 | 974.4 | |
| 20260905115718 | 20 | 0.0 | 0.0 | 0.00 | 0.00 | 0.00 | 44 | 974.3 | |
| 20260905114217 | 22 | 0.0 | 0.0 | 0.00 | 0.00 | 0.00 | 45 | 974.2 | |
| 20260905114115 | 22 | 0.0 | 0.0 | 0.00 | 0.00 | 0.00 | 46 | 974.3 | |
| 20260905112717 | 21 | 0.0 | 0.0 | 0.00 | 0.00 | 0.00 | 47 | 974.4 | |
| 20260905112513 | 21 | 0.0 | 0.0 | 0.00 | 0.00 | 0.00 | 48 | 974.3 | |
| 20260905111014 | 21 | 0.0 | 0.0 | 0.00 | 0.00 | 0.00 | 48 | 974.4 | |
| 20260905110911 | 21 | 0.0 | 0.0 | 0.00 | 0.00 | 0.00 | 49 | 974.2 | |
| 20260905105411 | 21 | 0.0 | 0.0 | 0.00 | 0.00 | 0.00 | 49 | 974.4 | |
| 20260905105309 | 21 | 0.0 | 0.0 | 0.00 | 0.00 | 0.00 | 50 | 974.1 | |
| 20260905103809 | 21 | 0.0 | 0.0 | 0.00 | 0.00 | 0.00 | 54 | 974.3 | |
| 20260905103707 | 20 | 0.0 | 0.0 | 0.00 | 0.00 | 0.00 | 56 | 974.2 | |
| 20260905102208 | 21 | 0.0 | 0.0 | 0.00 | 0.00 | 0.00 | 56 | 974.3 | |
| 20260905102105 | 21 | 0.0 | 0.0 | 0.00 | 0.00 | 0.00 | 59 | 974.3 | |
| 20260905100708 | 21 | 0.0 | 0.0 | 0.00 | 0.00 | 0.00 | 53 | 974.4 | |
| 20260905100503 | 22 | 0.0 | 0.0 | 0.00 | 0.00 | 0.00 | 51 | 974.4 | |
| 20260905095005 | 22 | 0.0 | 0.0 | 0.00 | 0.00 | 0.00 | 55 | 974.4 | |
| 20260905094902 | 21 | 0.0 | 0.0 | 0.00 | 0.00 | 0.00 | 55 | 974.3 | |
| 20260905093403 | 23 | 0.0 | 0.0 | 0.00 | 0.00 | 0.00 | 52 | 974.3 | |
| 20260905093300 | 23 | 0.0 | 0.0 | 0.00 | 0.00 | 0.00 | 53 | 974.3 | |
| 20260905091800 | 21 | 0.0 | 0.0 | 0.00 | 0.00 | 0.00 | 59 | 974.4 | |
| 20260905091657 | 21 | 0.0 | 0.0 | 0.00 | 0.00 | 0.00 | 59 | 974.4 | |
| 20260905090157 | 21 | 0.0 | 0.0 | 0.00 | 0.00 | 0.00 | 59 | 974.4 | |
| 20260905090055 | 21 | 0.0 | 0.0 | 0.00 | 0.00 | 0.00 | 59 | 974.3 | |
| 20260905084555 | 22 | 0.0 | 0.0 | 0.00 | 0.00 | 0.00 | 55 | 974.3 | |
| 20260905084453 | 22 | 0.0 | 0.0 | 0.00 | 0.00 | 0.00 | 56 | 974.3 | |
| 20260905082954 | 21 | 0.0 | 0.0 | 0.00 | 0.00 | 0.00 | 61 | 974.3 | |
| 20260905082851 | 21 | 0.0 | 0.0 | 0.00 | 0.00 | 0.00 | 60 | 974.3 | |
| 20260905081353 | 22 | 0.0 | 0.0 | 0.00 | 0.00 | 0.00 | 59 | 974.3 | |
| 20260905081249 | 21 | 0.0 | 0.0 | 0.00 | 0.00 | 0.00 | 61 | 974.3 | |
| 20260905075749 | 23 | 0.0 | 0.0 | 0.00 | 0.00 | 0.00 | 59 | 974.1 | |
| 20260905075647 | 23 | 0.0 | 0.0 | 0.00 | 0.00 | 0.00 | 56 | 974.0 | |
| 20260905074149 | 22 | 0.0 | 0.0 | 0.00 | 0.00 | 0.00 | 59 | 974.0 | |
| 20260905074046 | 22 | 0.0 | 0.0 | 0.00 | 0.00 | 0.00 | 60 | 974.0 | |
| 20260905072547 | 22 | 0.0 | 0.0 | 0.00 | 0.00 | 0.00 | 61 | 973.8 | |
| 20260905072444 | 22 | 0.0 | 0.0 | 0.00 | 0.00 | 0.00 | 61 | 973.8 | |
| 20260905070945 | 21 | 0.0 | 0.0 | 0.00 | 0.00 | 0.00 | 69 | 973.8 | |
| 20260905070841 | 21 | 0.0 | 0.0 | 0.00 | 0.00 | 0.00 | 68 | 973.8 | |
| 20260905065342 | 20 | 0.0 | 0.0 | 0.00 | 0.00 | 0.00 | 77 | 973.8 | |
| 20260905065239 | 19 | 0.0 | 0.0 | 0.00 | 0.00 | 0.00 | 78 | 973.8 | |
| 20260905063741 | 21 | 0.0 | 0.0 | 0.00 | 0.00 | 0.00 | 73 | 973.7 | |
| 20260905063638 | 21 | 0.0 | 0.0 | 0.00 | 0.00 | 0.00 | 73 | 973.7 | |
| 20260905062137 | 20 | 0.0 | 0.0 | 0.00 | 0.00 | 0.00 | 76 | 973.8 | |
| 20260905062035 | 20 | 0.0 | 0.0 | 0.00 | 0.00 | 0.00 | 79 | 973.8 | |
| 20260905060537 | 20 | 0.0 | 0.0 | 0.00 | 0.00 | 0.00 | 82 | 973.5 | |
| 20260905060434 | 20 | 0.0 | 0.0 | 0.00 | 0.00 | 0.00 | 84 | 973.5 | |
| 20260905054934 | 18 | 0.0 | 0.0 | 0.00 | 0.00 | 0.00 | 92 | 973.4 | |
| 20260905054831 | 17 | 0.0 | 0.0 | 0.00 | 0.00 | 0.00 | 95 | 973.4 | |
| 20260905053333 | 16 | 0.0 | 0.0 | 0.00 | 0.00 | 0.00 | 100 | 973.2 | |
| 20260905053230 | 16 | 0.0 | 0.0 | 0.00 | 0.00 | 0.00 | 100 | 973.2 | |
| 20260905051729 | 13 | 0.0 | 0.0 | 0.00 | 0.00 | 0.00 | 100 | 973.0 | |
| 20260905051626 | 13 | 0.0 | 0.0 | 0.00 | 0.00 | 0.00 | 100 | 973.0 | |
| 20260905050128 | 13 | 0.0 | 0.0 | 0.00 | 0.00 | 0.00 | 100 | 972.8 | |
| 20260905050025 | 13 | 0.0 | 0.0 | 0.00 | 0.00 | 0.00 | 100 | 972.7 | |
| 20260905042645 | 13 | 0.0 | 0.0 | 0.00 | 0.00 | 0.00 | 100 | 971.9 | |
| 20260905042543 | 13 | 0.0 | 0.0 | 0.00 | 0.00 | 0.00 | 100 | 971.8 | |
| 20260905032446 | 14 | 0.0 | 0.0 | 0.00 | 0.00 | 0.00 | 100 | 972.1 | |
| 20260905032343 | 13 | 0.0 | 0.0 | 0.00 | 0.00 | 0.00 | 100 | 972.0 | |
| 20260905022043 | 15 | 0.0 | 0.0 | 0.00 | 0.00 | 0.00 | 100 | 971.4 | |
| 20260905021940 | 14 | 0.0 | 0.0 | 0.00 | 0.00 | 0.00 | 100 | 971.3 | |
| 20260905011741 | 16 | 0.0 | 0.0 | 0.00 | 0.00 | 0.00 | 85 | 970.6 | |
| 20260905011638 | 16 | 0.0 | 0.0 | 0.00 | 0.00 | 0.00 | 84 | 970.5 | |
| 20260905001439 | 17 | 0.0 | 0.0 | 0.00 | 0.00 | 0.00 | 82 | 970.1 | |
| 20260905001336 | 17 | 0.0 | 0.0 | 0.00 | 0.00 | 0.00 | 83 | 970.1 |